Time,TemperatureF,DewpointF,PressureIn,WindDirection,WindDirectionDegrees,WindSpeedMPH,WindSpeedGustMPH,Humidity,HourlyPrecipIn,Conditions,Clouds,dailyrainin,SoftwareType,DateUTC
2013-02-11 00:00:00,41.0,26.5,29.90,SE,135,3.6,6.5,56,2.59,,,1.38,WUHU216HW,2013-02-11 05:00:00,
2013-02-11 00:05:00,40.9,26.3,29.90,SSE,158,8.9,8.9,56,2.59,,,0.15,WUHU216HW,2013-02-11 05:05:00,
2013-02-11 00:10:00,41.0,26.5,29.90,SW,225,5.6,8.9,56,2.59,,,0.15,WUHU216HW,2013-02-11 05:10:00,
2013-02-11 00:15:00,41.0,26.0,29.90,SW,225,6.7,9.6,55,2.59,,,0.15,WUHU216HW,2013-02-11 05:15:00,
2013-02-11 00:20:00,41.0,26.0,29.90,SSW,203,6.3,9.6,55,2.59,,,0.15,WUHU216HW,2013-02-11 05:20:00,
2013-02-11 00:25:00,40.9,26.3,29.90,SSW,203,6.0,8.9,56,2.59,,,0.15,WUHU216HW,2013-02-11 05:25:00,
2013-02-11 00:30:00,40.7,26.1,29.89,SE,135,4.7,7.8,56,2.59,,,0.15,WUHU216HW,2013-02-11 05:30:00,
2013-02-11 00:35:00,40.7,26.1,29.89,SSW,203,5.4,7.4,56,2.59,,,0.15,WUHU216HW,2013-02-11 05:35:00,
2013-02-11 00:40:00,40.7,26.1,29.89,SSE,158,4.7,7.4,56,2.59,,,0.15,WUHU216HW,2013-02-11 05:40:00,
2013-02-11 00:45:00,40.5,25.5,29.88,SSW,203,10.5,10.5,55,2.59,,,0.15,WUHU216HW,2013-02-11 05:45:00,
2013-02-11 00:50:00,40.5,25.9,29.88,SSE,158,4.7,10.5,56,2.59,,,0.15,WUHU216HW,2013-02-11 05:50:00,
2013-02-11 00:55:00,40.5,25.5,29.87,SW,225,6.9,11.2,55,2.59,,,0.15,WUHU216HW,2013-02-11 05:55:00,
2013-02-11 01:00:00,40.3,25.3,29.86,SSW,203,10.1,11.2,55,2.59,,,0.15,WUHU216HW,2013-02-11 06:00:00,
2013-02-11 01:05:00,40.3,25.3,29.87,SSW,203,4.9,10.1,55,2.59,,,0.38,WUHU216HW,2013-02-11 06:05:00,
2013-02-11 01:10:00,40.3,25.3,29.86,SE,135,6.0,9.6,55,2.59,,,0.38,WUHU216HW,2013-02-11 06:10:00,
2013-02-11 01:15:00,40.5,25.5,29.85,SW,225,9.4,10.1,55,2.59,,,0.38,WUHU216HW,2013-02-11 06:15:00,
2013-02-11 01:20:00,40.5,25.0,29.85,WSW,248,8.3,11.0,54,2.59,,,0.38,WUHU216HW,2013-02-11 06:20:00,
2013-02-11 01:25:00,40.3,25.3,29.85,WSW,248,6.7,11.0,55,2.59,,,0.38,WUHU216HW,2013-02-11 06:25:00,
2013-02-11 01:30:00,40.5,25.5,29.85,SW,225,4.0,10.1,55,2.59,,,0.38,WUHU216HW,2013-02-11 06:30:00,
2013-02-11 01:35:00,40.5,25.5,29.84,SSW,203,7.4,10.3,55,2.59,,,0.38,WUHU216HW,2013-02-11 06:35:00,
2013-02-11 01:40:00,40.3,25.3,29.84,SW,225,3.8,10.3,55,2.59,,,0.38,WUHU216HW,2013-02-11 06:40:00,
2013-02-11 01:45:00,40.3,25.7,29.84,SW,225,8.5,9.8,56,2.59,,,0.38,WUHU216HW,2013-02-11 06:45:00,
2013-02-11 01:50:00,40.3,25.7,29.84,SSW,203,8.1,9.8,56,2.59,,,0.38,WUHU216HW,2013-02-11 06:50:00,
2013-02-11 01:55:00,40.5,25.9,29.83,SSE,158,9.8,10.1,56,2.59,,,0.38,WUHU216HW,2013-02-11 06:55:00,
2013-02-11 02:00:00,40.5,25.9,29.83,South,180,7.6,10.1,56,2.59,,,0.38,WUHU216HW,2013-02-11 07:00:00,
2013-02-11 02:05:00,40.7,26.1,29.83,WSW,248,5.4,8.5,56,2.59,,,0.60,WUHU216HW,2013-02-11 07:05:00,
2013-02-11 02:10:00,40.7,26.1,29.83,SSW,203,4.5,8.5,56,2.59,,,0.60,WUHU216HW,2013-02-11 07:10:00,
2013-02-11 02:15:00,40.7,26.1,29.84,SSW,203,3.4,7.4,56,2.59,,,0.60,WUHU216HW,2013-02-11 07:15:00,
2013-02-11 02:20:00,40.7,26.1,29.84,SSW,203,4.0,6.3,56,2.59,,,0.60,WUHU216HW,2013-02-11 07:20:00,
2013-02-11 02:25:00,40.7,26.1,29.83,SW,225,4.0,6.5,56,2.59,,,0.60,WUHU216HW,2013-02-11 07:25:00,
2013-02-11 02:30:00,40.9,26.3,29.83,SE,135,3.6,6.5,56,2.59,,,0.60,WUHU216HW,2013-02-11 07:30:00,
2013-02-11 02:35:00,40.9,26.3,29.83,South,180,5.4,5.4,56,2.59,,,0.60,WUHU216HW,2013-02-11 07:35:00,
2013-02-11 02:40:00,40.9,26.7,29.83,SW,225,3.1,6.7,57,2.59,,,0.60,WUHU216HW,2013-02-11 07:40:00,
2013-02-11 02:45:00,41.0,26.9,29.82,SSE,158,1.8,6.7,57,2.59,,,0.60,WUHU216HW,2013-02-11 07:45:00,
2013-02-11 02:50:00,40.9,26.7,29.83,SW,225,3.4,5.4,57,2.59,,,0.60,WUHU216HW,2013-02-11 07:50:00,
2013-02-11 02:55:00,40.9,27.2,29.83,SSW,203,3.8,5.4,58,2.59,,,0.60,WUHU216HW,2013-02-11 07:55:00,
2013-02-11 03:00:00,40.7,27.5,29.83,SSE,158,3.4,5.1,59,2.60,,,0.61,WUHU216HW,2013-02-11 08:00:00,
2013-02-11 03:05:00,40.5,27.7,29.83,SSE,158,1.1,5.4,60,2.60,,,0.85,WUHU216HW,2013-02-11 08:05:00,
2013-02-11 03:10:00,40.3,27.9,29.83,South,180,2.0,5.4,61,2.61,,,0.85,WUHU216HW,2013-02-11 08:10:00,
2013-02-11 03:15:00,40.1,27.7,29.82,South,180,2.7,2.7,61,2.62,,,0.85,WUHU216HW,2013-02-11 08:15:00,
2013-02-11 03:20:00,40.0,27.9,29.82,SSE,158,2.7,2.7,62,2.62,,,0.87,WUHU216HW,2013-02-11 08:20:00,
2013-02-11 03:25:00,39.8,28.2,29.81,South,180,2.2,2.7,63,2.62,,,0.87,WUHU216HW,2013-02-11 08:25:00,
2013-02-11 03:30:00,39.6,28.0,29.81,ESE,113,1.1,3.6,63,2.62,,,0.87,WUHU216HW,2013-02-11 08:30:00,
2013-02-11 03:35:00,39.4,27.8,29.81,NW,315,3.4,3.8,63,2.63,,,0.87,WUHU216HW,2013-02-11 08:35:00,
2013-02-11 03:40:00,39.4,27.8,29.81,West,270,2.2,4.9,63,2.63,,,0.87,WUHU216HW,2013-02-11 08:40:00,
2013-02-11 03:45:00,39.4,27.8,29.80,West,270,4.5,6.9,63,2.63,,,0.87,WUHU216HW,2013-02-11 08:45:00,
2013-02-11 03:50:00,39.6,28.4,29.80,West,270,2.2,6.9,64,2.64,,,0.89,WUHU216HW,2013-02-11 08:50:00,
2013-02-11 03:55:00,39.4,28.2,29.80,NW,315,1.8,5.4,64,2.63,,,0.89,WUHU216HW,2013-02-11 08:55:00,
2013-02-11 04:00:00,39.2,28.4,29.80,WSW,248,3.4,6.3,65,2.63,,,0.89,WUHU216HW,2013-02-11 09:00:00,
2013-02-11 04:05:00,39.2,28.7,29.79,SW,225,6.3,6.7,66,2.63,,,1.16,WUHU216HW,2013-02-11 09:05:00,
2013-02-11 04:10:00,39.2,29.1,29.79,WNW,293,3.6,6.7,67,2.62,,,1.16,WUHU216HW,2013-02-11 09:10:00,
2013-02-11 04:15:00,39.2,29.1,29.79,West,270,4.0,7.4,67,2.61,,,1.16,WUHU216HW,2013-02-11 09:15:00,
2013-02-11 04:20:00,39.1,29.0,29.79,WSW,248,4.0,7.4,67,2.61,,,1.16,WUHU216HW,2013-02-11 09:20:00,
2013-02-11 04:25:00,38.9,29.2,29.78,SW,225,7.4,7.4,68,2.61,,,1.16,WUHU216HW,2013-02-11 09:25:00,
2013-02-11 04:30:00,38.9,29.5,29.78,WSW,248,3.4,7.4,69,2.61,,,1.16,WUHU216HW,2013-02-11 09:30:00,
2013-02-11 04:35:00,38.9,30.2,29.77,NW,315,1.8,9.4,71,2.60,,,1.16,WUHU216HW,2013-02-11 09:35:00,
2013-02-11 04:40:00,38.9,30.2,29.77,WSW,248,4.0,9.4,71,2.60,,,1.16,WUHU216HW,2013-02-11 09:40:00,
2013-02-11 04:45:00,38.7,30.1,29.77,South,180,1.1,5.6,71,2.59,,,1.16,WUHU216HW,2013-02-11 09:45:00,
2013-02-11 04:50:00,38.7,30.4,29.77,SSW,203,5.4,5.6,72,2.59,,,1.16,WUHU216HW,2013-02-11 09:50:00,
2013-02-11 04:55:00,38.7,30.8,29.76,NE,45,3.6,5.4,73,2.59,,,1.16,WUHU216HW,2013-02-11 09:55:00,
2013-02-11 05:00:00,38.7,31.2,29.77,WNW,293,11.0,11.0,74,2.59,,,1.16,WUHU216HW,2013-02-11 10:00:00,
2013-02-11 05:05:00,38.9,31.6,29.77,WSW,248,2.5,11.0,75,2.59,,,1.43,WUHU216HW,2013-02-11 10:05:00,
2013-02-11 05:10:00,39.1,31.8,29.77,WSW,248,5.4,6.5,75,2.59,,,1.43,WUHU216HW,2013-02-11 10:10:00,
2013-02-11 05:15:00,39.2,32.7,29.77,West,270,7.2,8.5,77,2.60,,,1.44,WUHU216HW,2013-02-11 10:15:00,
2013-02-11 05:20:00,39.2,32.9,29.77,WSW,248,6.3,9.6,78,2.60,,,1.44,WUHU216HW,2013-02-11 10:20:00,
2013-02-11 05:25:00,39.4,33.1,29.76,SSE,158,10.1,10.1,78,2.61,,,1.46,WUHU216HW,2013-02-11 10:25:00,
2013-02-11 05:30:00,39.4,33.5,29.76,WSW,248,9.6,10.1,79,2.61,,,1.46,WUHU216HW,2013-02-11 10:30:00,
2013-02-11 05:35:00,39.2,33.3,29.76,SW,225,2.9,9.6,79,2.61,,,1.46,WUHU216HW,2013-02-11 10:35:00,
2013-02-11 05:40:00,39.2,33.3,29.76,SW,225,7.4,7.4,79,2.62,,,1.46,WUHU216HW,2013-02-11 10:40:00,
2013-02-11 05:45:00,39.2,33.3,29.75,WSW,248,5.6,7.6,79,2.62,,,1.46,WUHU216HW,2013-02-11 10:45:00,
2013-02-11 05:50:00,39.2,33.3,29.75,WSW,248,1.8,7.6,79,2.63,,,1.48,WUHU216HW,2013-02-11 10:50:00,
2013-02-11 05:55:00,39.2,33.3,29.75,West,270,6.9,7.6,79,2.63,,,1.48,WUHU216HW,2013-02-11 10:55:00,
2013-02-11 06:00:00,39.6,34.0,29.74,SSW,203,8.9,10.5,80,2.63,,,1.48,WUHU216HW,2013-02-11 11:00:00,
2013-02-11 06:05:00,39.6,34.0,29.74,SW,225,8.1,10.5,80,2.63,,,1.79,WUHU216HW,2013-02-11 11:05:00,
2013-02-11 06:10:00,39.6,34.0,29.74,South,180,4.9,8.1,80,2.63,,,1.79,WUHU216HW,2013-02-11 11:10:00,
2013-02-11 06:15:00,39.6,34.0,29.73,SW,225,3.4,7.2,80,2.62,,,1.79,WUHU216HW,2013-02-11 11:15:00,
2013-02-11 06:20:00,39.8,34.1,29.73,WSW,248,3.1,6.9,80,2.62,,,1.79,WUHU216HW,2013-02-11 11:20:00,
2013-02-11 06:25:00,39.8,34.1,29.73,SSW,203,7.6,7.6,80,2.61,,,1.79,WUHU216HW,2013-02-11 11:25:00,
2013-02-11 06:30:00,40.0,34.6,29.72,SW,225,11.0,11.0,81,2.61,,,1.79,WUHU216HW,2013-02-11 11:30:00,
2013-02-11 06:35:00,40.1,35.1,29.72,WSW,248,7.2,11.0,82,2.61,,,1.79,WUHU216HW,2013-02-11 11:35:00,
2013-02-11 06:40:00,40.3,35.2,29.72,West,270,5.6,10.5,82,2.60,,,1.79,WUHU216HW,2013-02-11 11:40:00,
2013-02-11 06:45:00,40.5,35.4,29.72,SW,225,6.3,12.1,82,2.60,,,1.79,WUHU216HW,2013-02-11 11:45:00,
2013-02-11 06:50:00,40.5,35.1,29.72,SSW,203,8.1,12.1,81,2.59,,,1.79,WUHU216HW,2013-02-11 11:50:00,
2013-02-11 06:55:00,40.7,35.3,29.72,South,180,5.6,8.9,81,2.59,,,1.79,WUHU216HW,2013-02-11 11:55:00,
2013-02-11 07:00:00,40.7,35.3,29.72,WSW,248,5.8,8.7,81,0.00,,,1.79,WUHU216HW,2013-02-11 12:00:00,
2013-02-11 07:05:00,40.9,35.5,29.72,WSW,248,4.5,8.5,81,2.59,,,2.11,WUHU216HW,2013-02-11 12:05:00,
2013-02-11 07:10:00,40.9,35.5,29.72,SSW,203,7.6,13.0,81,2.59,,,2.11,WUHU216HW,2013-02-11 12:10:00,
2013-02-11 07:15:00,41.0,35.6,29.72,WSW,248,6.9,13.0,81,2.59,,,2.11,WUHU216HW,2013-02-11 12:15:00,
2013-02-11 07:20:00,41.4,35.9,29.72,NW,315,5.6,11.0,81,2.59,,,2.11,WUHU216HW,2013-02-11 12:20:00,
2013-02-11 07:25:00,41.4,36.3,29.72,WSW,248,12.1,12.1,82,2.59,,,2.11,WUHU216HW,2013-02-11 12:25:00,
2013-02-11 07:30:00,41.8,36.3,29.72,SW,225,8.9,12.1,81,2.59,,,2.11,WUHU216HW,2013-02-11 12:30:00,
2013-02-11 07:35:00,41.9,36.5,29.72,NW,315,6.0,9.2,81,2.59,,,2.11,WUHU216HW,2013-02-11 12:35:00,
2013-02-11 07:40:00,41.9,36.5,29.72,WSW,248,8.5,9.2,81,2.59,,,2.11,WUHU216HW,2013-02-11 12:40:00,
2013-02-11 07:45:00,42.1,36.6,29.72,WSW,248,8.1,9.2,81,2.59,,,2.11,WUHU216HW,2013-02-11 12:45:00,
2013-02-11 07:50:00,42.1,36.6,29.71,SSW,203,3.4,9.6,81,2.59,,,2.11,WUHU216HW,2013-02-11 12:50:00,
2013-02-11 07:55:00,42.1,36.6,29.70,NW,315,3.8,9.6,81,2.59,,,2.11,WUHU216HW,2013-02-11 12:55:00,
2013-02-11 08:00:00,42.3,36.8,29.70,SW,225,7.2,9.4,81,0.00,,,2.11,WUHU216HW,2013-02-11 13:00:00,
2013-02-11 08:05:00,42.5,37.0,29.70,SSW,203,8.5,10.5,81,2.59,,,2.42,WUHU216HW,2013-02-11 13:05:00,
2013-02-11 08:10:00,42.7,37.2,29.70,WSW,248,6.9,10.5,81,2.59,,,2.42,WUHU216HW,2013-02-11 13:10:00,
2013-02-11 08:15:00,42.8,37.4,29.70,SW,225,4.0,9.8,81,2.59,,,2.42,WUHU216HW,2013-02-11 13:15:00,
2013-02-11 08:20:00,42.8,37.4,29.70,NW,315,4.0,11.0,81,2.59,,,2.42,WUHU216HW,2013-02-11 13:20:00,
2013-02-11 08:25:00,43.0,37.5,29.70,West,270,3.8,11.0,81,2.59,,,2.42,WUHU216HW,2013-02-11 13:25:00,
2013-02-11 08:30:00,43.2,37.7,29.70,SW,225,7.6,8.3,81,2.59,,,2.42,WUHU216HW,2013-02-11 13:30:00,
2013-02-11 08:35:00,43.4,37.9,29.70,West,270,4.9,9.8,81,2.59,,,2.42,WUHU216HW,2013-02-11 13:35:00,
2013-02-11 08:40:00,43.4,37.9,29.70,NNW,338,7.6,9.8,81,2.59,,,2.42,WUHU216HW,2013-02-11 13:40:00,
2013-02-11 08:45:00,43.6,38.1,29.70,West,270,7.6,8.7,81,2.59,,,2.42,WUHU216HW,2013-02-11 13:45:00,
2013-02-11 08:50:00,43.7,38.3,29.70,East,90,8.3,8.7,81,2.59,,,2.42,WUHU216HW,2013-02-11 13:50:00,
2013-02-11 08:55:00,44.1,38.6,29.70,WNW,293,5.6,8.3,81,2.59,,,2.42,WUHU216HW,2013-02-11 13:55:00,
2013-02-11 09:00:00,44.3,38.8,29.69,NW,315,6.5,7.6,81,2.59,,,2.42,WUHU216HW,2013-02-11 14:00:00,
2013-02-11 09:05:00,44.6,39.2,29.69,SSW,203,4.0,9.2,81,2.59,,,2.74,WUHU216HW,2013-02-11 14:05:00,
2013-02-11 09:10:00,44.6,39.2,29.68,NNW,338,6.3,9.6,81,2.59,,,2.74,WUHU216HW,2013-02-11 14:10:00,
2013-02-11 09:15:00,45.0,39.5,29.68,WSW,248,12.1,12.1,81,2.59,,,2.74,WUHU216HW,2013-02-11 14:15:00,
2013-02-11 09:20:00,45.5,39.8,29.68,West,270,5.6,12.1,80,2.59,,,2.74,WUHU216HW,2013-02-11 14:20:00,
2013-02-11 09:25:00,45.9,40.1,29.67,West,270,8.5,8.7,80,2.59,,,2.74,WUHU216HW,2013-02-11 14:25:00,
2013-02-11 09:30:00,45.9,39.8,29.66,West,270,5.1,8.5,79,2.59,,,2.74,WUHU216HW,2013-02-11 14:30:00,
2013-02-11 09:35:00,46.1,40.0,29.66,SW,225,4.0,8.5,79,2.59,,,2.74,WUHU216HW,2013-02-11 14:35:00,
2013-02-11 09:40:00,46.3,40.1,29.66,West,270,5.1,7.4,79,2.59,,,2.74,WUHU216HW,2013-02-11 14:40:00,
2013-02-11 09:45:00,46.4,40.3,29.66,SSW,203,6.3,7.4,79,2.59,,,2.74,WUHU216HW,2013-02-11 14:45:00,
2013-02-11 09:50:00,47.0,40.9,29.66,SW,225,8.5,8.5,79,2.59,,,2.74,WUHU216HW,2013-02-11 14:50:00,
2013-02-11 09:55:00,47.2,41.0,29.66,WSW,248,4.9,8.5,79,2.59,,,2.74,WUHU216HW,2013-02-11 14:55:00,
2013-02-11 10:00:00,47.3,41.1,29.66,West,270,3.4,10.5,79,2.59,,,2.74,WUHU216HW,2013-02-11 15:00:00,
2013-02-11 10:05:00,47.9,41.7,29.66,NW,315,5.6,13.2,79,2.59,,,3.05,WUHU216HW,2013-02-11 15:05:00,
2013-02-11 10:10:00,48.4,41.8,29.66,SW,225,6.9,13.2,78,2.59,,,3.05,WUHU216HW,2013-02-11 15:10:00,
2013-02-11 10:15:00,48.8,42.1,29.65,WSW,248,9.8,11.6,78,2.59,,,3.05,WUHU216HW,2013-02-11 15:15:00,
2013-02-11 10:20:00,48.8,41.9,29.65,West,270,8.5,12.5,77,2.59,,,3.05,WUHU216HW,2013-02-11 15:20:00,
2013-02-11 10:25:00,49.0,41.7,29.64,West,270,9.4,12.8,76,2.59,,,3.05,WUHU216HW,2013-02-11 15:25:00,
2013-02-11 10:30:00,49.0,41.7,29.64,West,270,7.2,12.8,76,2.59,,,3.05,WUHU216HW,2013-02-11 15:30:00,
2013-02-11 10:35:00,49.1,41.5,29.64,WNW,293,15.0,15.0,75,2.59,,,3.05,WUHU216HW,2013-02-11 15:35:00,
2013-02-11 10:40:00,49.1,41.5,29.64,WSW,248,16.6,16.8,75,2.59,,,3.05,WUHU216HW,2013-02-11 15:40:00,
2013-02-11 10:45:00,49.1,41.1,29.64,WSW,248,13.0,17.0,74,2.59,,,3.05,WUHU216HW,2013-02-11 15:45:00,
2013-02-11 10:50:00,49.5,41.5,29.64,WSW,248,15.2,17.0,74,2.59,,,3.05,WUHU216HW,2013-02-11 15:50:00,
2013-02-11 10:55:00,49.7,41.3,29.64,WNW,293,9.8,15.2,73,2.59,,,3.05,WUHU216HW,2013-02-11 15:55:00,
2013-02-11 11:00:00,49.9,41.5,29.63,NW,315,10.5,19.5,73,2.59,,,3.05,WUHU216HW,2013-02-11 16:00:00,
2013-02-11 11:05:00,49.9,41.2,29.63,SSW,203,10.5,20.8,72,2.59,,,3.37,WUHU216HW,2013-02-11 16:05:00,
2013-02-11 11:10:00,50.0,41.4,29.63,NW,315,15.7,20.8,72,2.59,,,3.37,WUHU216HW,2013-02-11 16:10:00,
2013-02-11 11:15:00,50.4,41.8,29.62,WSW,248,15.0,15.7,72,2.59,,,3.37,WUHU216HW,2013-02-11 16:15:00,
2013-02-11 11:20:00,50.4,41.4,29.62,NW,315,11.4,15.0,71,2.59,,,3.37,WUHU216HW,2013-02-11 16:20:00,
2013-02-11 11:25:00,50.8,41.8,29.61,SSW,203,10.3,14.3,71,2.59,,,3.37,WUHU216HW,2013-02-11 16:25:00,
2013-02-11 11:30:00,50.9,42.0,29.61,West,270,6.5,14.3,71,2.59,,,3.37,WUHU216HW,2013-02-11 16:30:00,
2013-02-11 11:35:00,51.1,41.8,29.61,NW,315,17.4,17.4,70,2.59,,,3.37,WUHU216HW,2013-02-11 16:35:00,
2013-02-11 11:40:00,51.1,41.8,29.60,WSW,248,11.9,17.4,70,2.59,,,3.37,WUHU216HW,2013-02-11 16:40:00,
2013-02-11 11:45:00,51.1,41.8,29.60,WNW,293,7.2,15.0,70,2.59,,,3.37,WUHU216HW,2013-02-11 16:45:00,
2013-02-11 11:50:00,51.1,41.8,29.60,West,270,12.8,15.9,70,2.59,,,3.37,WUHU216HW,2013-02-11 16:50:00,
2013-02-11 11:55:00,51.5,42.1,29.59,West,270,6.5,19.5,70,2.59,,,3.37,WUHU216HW,2013-02-11 16:55:00,
2013-02-11 12:00:00,51.8,42.0,29.59,NE,45,8.9,19.5,69,2.59,,,3.37,WUHU216HW,2013-02-11 17:00:00,
2013-02-11 12:05:00,52.2,42.9,29.59,WNW,293,15.2,15.2,70,2.59,,,3.68,WUHU216HW,2013-02-11 17:05:00,
2013-02-11 12:10:00,52.2,42.4,29.59,SW,225,9.4,15.2,69,2.59,,,3.68,WUHU216HW,2013-02-11 17:10:00,
2013-02-11 12:15:00,52.4,42.6,29.58,West,270,12.8,17.2,69,2.59,,,3.68,WUHU216HW,2013-02-11 17:15:00,
2013-02-11 12:20:00,52.7,42.5,29.58,SSW,203,8.5,19.0,68,2.59,,,3.68,WUHU216HW,2013-02-11 17:20:00,
2013-02-11 12:25:00,52.9,42.7,29.57,ENE,68,9.4,19.0,68,2.59,,,3.68,WUHU216HW,2013-02-11 17:25:00,
2013-02-11 12:30:00,52.9,42.2,29.56,NW,315,12.3,14.8,67,2.59,,,3.68,WUHU216HW,2013-02-11 17:30:00,
2013-02-11 12:35:00,53.1,42.4,29.56,West,270,8.1,12.8,67,2.59,,,3.68,WUHU216HW,2013-02-11 17:35:00,
2013-02-11 12:40:00,52.4,42.1,29.61,North,0,15.9,23.0,68,2.59,,,3.68,WUHU216HW,2013-02-11 17:40:00,
2013-02-11 12:45:00,48.1,39.1,29.61,NW,315,15.9,26.8,71,2.62,,,3.71,WUHU216HW,2013-02-11 17:45:00,
2013-02-11 12:50:00,45.5,37.4,29.62,NW,315,17.9,26.8,73,2.62,,,3.71,WUHU216HW,2013-02-11 17:50:00,
2013-02-11 12:55:00,44.3,36.8,29.63,WNW,293,18.3,21.3,75,2.62,,,3.71,WUHU216HW,2013-02-11 17:55:00,
2013-02-11 13:00:00,43.4,36.6,29.62,NW,315,17.0,18.3,77,2.62,,,3.71,WUHU216HW,2013-02-11 18:00:00,
2013-02-11 13:05:00,42.7,35.9,29.63,NW,315,10.3,17.2,77,0.03,,,3.71,WUHU216HW,2013-02-11 18:05:00,
2013-02-11 13:10:00,42.1,35.7,29.63,NNW,338,15.2,17.2,78,0.03,,,3.71,WUHU216HW,2013-02-11 18:10:00,
2013-02-11 13:15:00,41.9,35.8,29.63,WNW,293,13.4,20.4,79,0.03,,,3.71,WUHU216HW,2013-02-11 18:15:00,
2013-02-11 13:20:00,41.8,35.6,29.62,NNE,23,15.0,20.4,79,0.03,,,3.71,WUHU216HW,2013-02-11 18:20:00,
2013-02-11 13:25:00,41.8,35.6,29.62,NW,315,11.4,19.2,79,0.03,,,3.71,WUHU216HW,2013-02-11 18:25:00,
2013-02-11 13:30:00,41.9,35.8,29.62,NW,315,10.3,19.2,79,0.03,,,3.71,WUHU216HW,2013-02-11 18:30:00,
2013-02-11 13:35:00,41.8,35.0,29.63,NW,315,27.1,27.1,77,0.03,,,3.71,WUHU216HW,2013-02-11 18:35:00,
2013-02-11 13:40:00,41.6,34.8,29.63,WSW,248,12.5,27.1,77,0.00,,,3.71,WUHU216HW,2013-02-11 18:40:00,
2013-02-11 13:45:00,41.4,34.7,29.63,NW,315,19.5,23.5,77,0.00,,,3.71,WUHU216HW,2013-02-11 18:45:00,
2013-02-11 13:50:00,41.2,34.5,29.63,NW,315,17.9,24.4,77,0.00,,,3.71,WUHU216HW,2013-02-11 18:50:00,
2013-02-11 13:55:00,41.2,34.2,29.63,WNW,293,17.0,24.4,76,0.00,,,3.71,WUHU216HW,2013-02-11 18:55:00,
2013-02-11 14:00:00,41.0,34.0,29.63,NNW,338,15.0,17.7,76,0.00,,,3.71,WUHU216HW,2013-02-11 19:00:00,
2013-02-11 14:05:00,41.0,34.0,29.63,WNW,293,11.9,17.9,76,0.00,,,3.71,WUHU216HW,2013-02-11 19:05:00,
2013-02-11 14:10:00,40.9,33.5,29.63,SW,225,16.6,23.7,75,0.00,,,3.71,WUHU216HW,2013-02-11 19:10:00,
2013-02-11 14:15:00,40.7,33.3,29.64,WNW,293,14.1,23.7,75,0.00,,,3.71,WUHU216HW,2013-02-11 19:15:00,
2013-02-11 14:20:00,40.5,33.1,29.64,NW,315,13.6,23.0,75,0.00,,,3.71,WUHU216HW,2013-02-11 19:20:00,
2013-02-11 14:25:00,40.3,32.9,29.64,NNW,338,17.2,23.0,75,0.00,,,3.71,WUHU216HW,2013-02-11 19:25:00,
2013-02-11 14:30:00,40.1,32.8,29.64,WSW,248,24.2,24.2,75,0.00,,,3.71,WUHU216HW,2013-02-11 19:30:00,
2013-02-11 14:35:00,40.0,32.7,29.64,WNW,293,21.7,24.2,75,0.00,,,3.71,WUHU216HW,2013-02-11 19:35:00,
2013-02-11 14:40:00,40.0,32.7,29.64,North,0,13.6,23.5,75,0.00,,,3.71,WUHU216HW,2013-02-11 19:40:00,
2013-02-11 14:45:00,39.6,32.3,29.65,NW,315,12.3,21.7,75,0.00,,,3.71,WUHU216HW,2013-02-11 19:45:00,
2013-02-11 14:50:00,39.4,32.5,29.65,WNW,293,20.8,23.0,76,0.00,,,3.71,WUHU216HW,2013-02-11 19:50:00,
2013-02-11 14:55:00,39.2,32.3,29.65,NW,315,19.0,23.0,76,0.00,,,3.71,WUHU216HW,2013-02-11 19:55:00,
2013-02-11 15:00:00,38.9,32.0,29.65,NW,315,14.3,19.2,76,0.00,,,3.71,WUHU216HW,2013-02-11 20:00:00,
2013-02-11 15:05:00,38.9,32.0,29.65,NW,315,15.7,26.4,76,0.00,,,3.71,WUHU216HW,2013-02-11 20:05:00,
2013-02-11 15:10:00,38.7,31.8,29.66,WNW,293,15.7,26.4,76,0.00,,,3.71,WUHU216HW,2013-02-11 20:10:00,
2013-02-11 15:15:00,38.5,31.6,29.65,WNW,293,15.9,22.1,76,0.00,,,3.71,WUHU216HW,2013-02-11 20:15:00,
2013-02-11 15:20:00,38.5,31.6,29.66,NW,315,23.0,23.0,76,0.00,,,3.71,WUHU216HW,2013-02-11 20:20:00,
2013-02-11 15:25:00,38.3,31.4,29.66,WNW,293,21.7,23.0,76,0.00,,,3.71,WUHU216HW,2013-02-11 20:25:00,
2013-02-11 15:30:00,38.0,31.1,29.66,West,270,14.8,22.4,76,0.00,,,3.71,WUHU216HW,2013-02-11 20:30:00,
2013-02-11 15:35:00,37.8,30.9,29.67,NW,315,22.1,24.4,76,0.00,,,3.71,WUHU216HW,2013-02-11 20:35:00,
2013-02-11 15:40:00,37.6,30.8,29.67,NNW,338,15.2,24.4,76,0.00,,,3.71,WUHU216HW,2013-02-11 20:40:00,
2013-02-11 15:45:00,37.4,30.6,29.68,West,270,12.8,22.6,76,0.00,,,3.71,WUHU216HW,2013-02-11 20:45:00,
2013-02-11 15:50:00,37.3,30.4,29.67,WNW,293,15.7,19.5,76,0.00,,,3.71,WUHU216HW,2013-02-11 20:50:00,
2013-02-11 15:55:00,37.1,29.9,29.68,NW,315,18.8,23.0,75,0.00,,,3.71,WUHU216HW,2013-02-11 20:55:00,
2013-02-11 16:00:00,37.1,29.9,29.68,WNW,293,20.8,23.0,75,0.00,,,3.71,WUHU216HW,2013-02-11 21:00:00,
2013-02-11 16:05:00,37.1,29.9,29.68,NW,315,23.7,23.7,75,0.00,,,3.71,WUHU216HW,2013-02-11 21:05:00,
2013-02-11 16:10:00,37.1,29.5,29.68,NW,315,14.3,24.4,74,0.00,,,3.71,WUHU216HW,2013-02-11 21:10:00,
2013-02-11 16:15:00,37.1,29.5,29.68,West,270,18.3,24.4,74,0.00,,,3.71,WUHU216HW,2013-02-11 21:15:00,
2013-02-11 16:20:00,37.1,29.3,29.68,West,270,26.6,26.6,73,0.00,,,3.71,WUHU216HW,2013-02-11 21:20:00,
2013-02-11 16:25:00,37.1,29.3,29.68,NW,315,13.6,26.6,73,0.00,,,3.71,WUHU216HW,2013-02-11 21:25:00,
2013-02-11 16:31:00,36.9,29.1,29.68,NW,315,18.6,23.0,73,0.00,,,3.71,WUHU216HW,2013-02-11 21:31:00,
2013-02-11 16:36:00,36.9,29.1,29.69,NW,315,20.4,23.3,73,0.00,,,3.71,WUHU216HW,2013-02-11 21:36:00,
2013-02-11 16:41:00,36.9,29.1,29.69,NW,315,19.2,23.3,73,0.00,,,3.71,WUHU216HW,2013-02-11 21:41:00,
2013-02-11 16:46:00,36.9,29.1,29.69,NW,315,25.7,25.7,73,0.00,,,3.71,WUHU216HW,2013-02-11 21:46:00,
2013-02-11 16:51:00,36.7,28.9,29.69,NW,315,23.5,25.7,73,0.00,,,3.71,WUHU216HW,2013-02-11 21:51:00,
2013-02-11 16:56:00,36.7,28.9,29.70,NW,315,19.7,28.0,73,0.00,,,3.71,WUHU216HW,2013-02-11 21:56:00,
2013-02-11 17:01:00,36.7,28.9,29.69,WNW,293,23.7,25.9,73,0.00,,,3.71,WUHU216HW,2013-02-11 22:01:00,
2013-02-11 17:06:00,36.7,29.2,29.70,WNW,293,17.4,23.7,74,0.00,,,3.71,WUHU216HW,2013-02-11 22:06:00,
2013-02-11 17:11:00,36.5,29.0,29.71,NNW,338,13.9,23.7,74,0.00,,,3.71,WUHU216HW,2013-02-11 22:11:00,
2013-02-11 17:16:00,36.4,28.5,29.71,NW,315,18.6,24.4,73,0.00,,,3.71,WUHU216HW,2013-02-11 22:16:00,
2013-02-11 17:21:00,36.4,28.8,29.71,NW,315,19.5,24.4,74,0.00,,,3.71,WUHU216HW,2013-02-11 22:21:00,
2013-02-11 17:26:00,36.4,28.8,29.71,WNW,293,21.7,23.3,74,0.00,,,3.71,WUHU216HW,2013-02-11 22:26:00,
2013-02-11 17:31:00,36.2,28.6,29.71,NW,315,14.3,21.7,74,0.00,,,3.71,WUHU216HW,2013-02-11 22:31:00,
2013-02-11 17:36:00,36.2,28.6,29.71,NW,315,14.3,19.2,74,0.00,,,3.71,WUHU216HW,2013-02-11 22:36:00,
2013-02-11 17:41:00,36.2,28.6,29.71,NW,315,19.9,22.1,74,0.00,,,3.71,WUHU216HW,2013-02-11 22:41:00,
2013-02-11 17:46:00,36.2,28.4,29.71,NW,315,23.7,23.7,73,0.00,,,3.71,WUHU216HW,2013-02-11 22:46:00,
2013-02-11 17:51:00,36.0,28.2,29.72,NW,315,13.4,23.7,73,0.00,,,3.71,WUHU216HW,2013-02-11 22:51:00,
2013-02-11 17:56:00,36.0,28.2,29.71,WNW,293,18.1,22.6,73,0.00,,,3.71,WUHU216HW,2013-02-11 22:56:00,
2013-02-11 18:01:00,35.8,28.0,29.72,West,270,15.2,31.3,73,0.00,,,3.71,WUHU216HW,2013-02-11 23:01:00,
2013-02-11 18:06:00,35.8,28.0,29.72,NW,315,22.4,31.3,73,0.00,,,3.71,WUHU216HW,2013-02-11 23:06:00,
2013-02-11 18:11:00,35.8,28.0,29.72,NW,315,27.5,27.5,73,0.00,,,3.71,WUHU216HW,2013-02-11 23:11:00,
2013-02-11 18:16:00,35.6,27.8,29.72,WNW,293,18.8,30.4,73,0.00,,,3.71,WUHU216HW,2013-02-11 23:16:00,
2013-02-11 18:21:00,35.6,27.8,29.73,NNW,338,23.9,30.4,73,0.00,,,3.71,WUHU216HW,2013-02-11 23:21:00,
2013-02-11 18:26:00,35.5,27.6,29.73,WSW,248,16.3,27.5,73,0.00,,,3.71,WUHU216HW,2013-02-11 23:26:00,
2013-02-11 18:31:00,35.5,27.6,29.73,WNW,293,21.3,27.5,73,0.00,,,3.71,WUHU216HW,2013-02-11 23:31:00,
2013-02-11 18:36:00,35.6,27.8,29.73,North,0,20.8,29.1,73,0.00,,,3.71,WUHU216HW,2013-02-11 23:36:00,
2013-02-11 18:41:00,35.6,27.8,29.73,West,270,13.0,29.1,73,0.00,,,3.71,WUHU216HW,2013-02-11 23:41:00,
2013-02-11 18:46:00,35.6,27.8,29.73,West,270,15.0,22.4,73,0.00,,,3.71,WUHU216HW,2013-02-11 23:46:00,
2013-02-11 18:51:00,35.6,27.8,29.73,WNW,293,25.9,25.9,73,0.00,,,3.71,WUHU216HW,2013-02-11 23:51:00,
2013-02-11 18:56:00,35.6,27.8,29.73,NW,315,26.6,26.6,73,0.00,,,3.71,WUHU216HW,2013-02-11 23:56:00,
2013-02-11 19:01:00,35.6,27.8,29.73,WSW,248,30.4,37.6,73,0.00,,,3.71,WUHU216HW,2013-02-12 00:01:00,
2013-02-11 19:06:00,35.6,27.8,29.73,NW,315,18.1,37.6,73,0.00,,,3.71,WUHU216HW,2013-02-12 00:06:00,
2013-02-11 19:11:00,35.6,27.8,29.73,North,0,18.6,31.1,73,0.00,,,3.71,WUHU216HW,2013-02-12 00:11:00,
2013-02-11 19:16:00,35.6,27.8,29.74,WNW,293,28.2,28.2,73,0.00,,,3.71,WUHU216HW,2013-02-12 00:16:00,
2013-02-11 19:21:00,35.6,27.8,29.74,West,270,23.0,28.6,73,0.00,,,3.71,WUHU216HW,2013-02-12 00:21:00,
2013-02-11 19:26:00,35.6,27.8,29.74,NW,315,12.1,28.6,73,0.00,,,3.71,WUHU216HW,2013-02-12 00:26:00,
2013-02-11 19:31:00,35.6,27.8,29.73,WNW,293,20.8,24.6,73,0.00,,,3.71,WUHU216HW,2013-02-12 00:31:00,
2013-02-11 19:36:00,35.6,27.8,29.74,West,270,24.4,29.5,73,0.00,,,3.71,WUHU216HW,2013-02-12 00:36:00,
2013-02-11 19:41:00,35.6,27.8,29.74,NW,315,25.9,29.5,73,0.00,,,3.71,WUHU216HW,2013-02-12 00:41:00,
2013-02-11 19:46:00,35.6,27.8,29.74,NW,315,14.1,29.1,73,0.00,,,3.71,WUHU216HW,2013-02-12 00:46:00,
2013-02-11 19:51:00,35.8,28.0,29.74,NW,315,24.8,24.8,73,0.00,,,3.71,WUHU216HW,2013-02-12 00:51:00,
2013-02-11 19:56:00,35.8,28.0,29.74,NW,315,21.3,30.4,73,0.00,,,3.71,WUHU216HW,2013-02-12 00:56:00,
2013-02-11 20:01:00,35.8,28.0,29.74,NW,315,22.1,30.4,73,0.00,,,3.71,WUHU216HW,2013-02-12 01:01:00,
2013-02-11 20:06:00,35.8,28.0,29.74,WNW,293,16.6,33.3,73,0.00,,,3.71,WUHU216HW,2013-02-12 01:06:00,
2013-02-11 20:11:00,35.8,28.0,29.75,WNW,293,22.6,33.3,73,0.00,,,3.71,WUHU216HW,2013-02-12 01:11:00,
2013-02-11 20:16:00,35.8,28.0,29.74,NW,315,25.9,27.5,73,0.00,,,3.71,WUHU216HW,2013-02-12 01:16:00,
2013-02-11 20:21:00,35.8,28.0,29.75,WNW,293,17.7,30.0,73,0.00,,,3.71,WUHU216HW,2013-02-12 01:21:00,
2013-02-11 20:26:00,35.8,28.0,29.75,West,270,31.5,31.5,73,0.00,,,3.71,WUHU216HW,2013-02-12 01:26:00,
2013-02-11 20:31:00,35.8,28.0,29.75,NW,315,18.1,33.3,73,0.00,,,3.71,WUHU216HW,2013-02-12 01:31:00,
2013-02-11 20:36:00,35.8,28.0,29.74,WNW,293,22.6,33.3,73,0.00,,,3.71,WUHU216HW,2013-02-12 01:36:00,
2013-02-11 20:41:00,35.6,27.8,29.75,NW,315,18.8,23.7,73,0.00,,,3.71,WUHU216HW,2013-02-12 01:41:00,
2013-02-11 20:46:00,35.6,28.1,29.75,NW,315,28.9,29.5,74,0.00,,,3.71,WUHU216HW,2013-02-12 01:46:00,
2013-02-11 20:51:00,35.6,28.1,29.74,WNW,293,18.8,29.5,74,0.00,,,3.71,WUHU216HW,2013-02-12 01:51:00,
2013-02-11 20:56:00,35.6,28.1,29.74,West,270,18.1,28.2,74,0.00,,,3.71,WUHU216HW,2013-02-12 01:56:00,
2013-02-11 21:01:00,35.6,28.4,29.74,NW,315,17.0,28.4,75,0.00,,,3.71,WUHU216HW,2013-02-12 02:01:00,
2013-02-11 21:06:00,35.6,28.4,29.74,West,270,18.1,32.0,75,0.00,,,3.71,WUHU216HW,2013-02-12 02:06:00,
2013-02-11 21:11:00,35.6,28.4,29.74,NNW,338,23.0,32.0,75,0.00,,,3.71,WUHU216HW,2013-02-12 02:11:00,
2013-02-11 21:16:00,35.6,28.4,29.75,West,270,17.9,30.2,75,0.00,,,3.71,WUHU216HW,2013-02-12 02:16:00,
2013-02-11 21:21:00,35.5,28.3,29.74,NW,315,21.5,27.1,75,0.00,,,3.71,WUHU216HW,2013-02-12 02:21:00,
2013-02-11 21:26:00,35.5,28.6,29.74,West,270,15.0,27.5,76,0.00,,,3.71,WUHU216HW,2013-02-12 02:26:00,
2013-02-11 21:31:00,35.5,28.6,29.74,WNW,293,21.5,28.9,76,0.00,,,3.71,WUHU216HW,2013-02-12 02:31:00,
2013-02-11 21:36:00,35.5,28.6,29.74,West,270,20.8,28.9,76,0.00,,,3.71,WUHU216HW,2013-02-12 02:36:00,
2013-02-11 21:41:00,35.5,28.6,29.74,WNW,293,20.1,30.6,76,0.00,,,3.71,WUHU216HW,2013-02-12 02:41:00,
2013-02-11 21:46:00,35.5,28.6,29.74,WNW,293,31.1,34.2,76,0.00,,,3.71,WUHU216HW,2013-02-12 02:46:00,
2013-02-11 21:51:00,35.3,28.5,29.74,WNW,293,39.8,39.8,76,0.00,,,3.71,WUHU216HW,2013-02-12 02:51:00,
2013-02-11 21:56:00,35.3,28.5,29.74,WNW,293,23.7,39.8,76,0.00,,,3.71,WUHU216HW,2013-02-12 02:56:00,
2013-02-11 22:01:00,35.3,28.5,29.74,WNW,293,23.3,39.8,76,0.00,,,3.71,WUHU216HW,2013-02-12 03:01:00,
2013-02-11 22:06:00,35.3,28.7,29.74,NW,315,25.1,29.5,77,0.00,,,3.71,WUHU216HW,2013-02-12 03:06:00,
2013-02-11 22:11:00,35.1,28.5,29.74,NW,315,18.6,28.9,77,0.00,,,3.71,WUHU216HW,2013-02-12 03:11:00,
2013-02-11 22:16:00,35.1,28.5,29.74,NW,315,28.2,32.0,77,0.00,,,3.71,WUHU216HW,2013-02-12 03:16:00,
2013-02-11 22:21:00,35.1,28.5,29.73,West,270,17.9,32.0,77,0.00,,,3.71,WUHU216HW,2013-02-12 03:21:00,
2013-02-11 22:26:00,34.9,28.4,29.73,WSW,248,21.5,32.2,77,0.00,,,3.71,WUHU216HW,2013-02-12 03:26:00,
2013-02-11 22:31:00,34.9,28.4,29.73,WNW,293,13.9,32.2,77,0.00,,,3.71,WUHU216HW,2013-02-12 03:31:00,
2013-02-11 22:36:00,34.9,28.4,29.73,WNW,293,11.4,26.8,77,0.00,,,3.71,WUHU216HW,2013-02-12 03:36:00,
2013-02-11 22:41:00,34.9,28.4,29.73,WNW,293,18.8,26.8,77,0.00,,,3.71,WUHU216HW,2013-02-12 03:41:00,
2013-02-11 22:46:00,34.9,28.4,29.74,NW,315,18.1,30.0,77,0.00,,,3.71,WUHU216HW,2013-02-12 03:46:00,
2013-02-11 22:51:00,34.9,28.7,29.74,WNW,293,34.2,34.2,78,0.00,,,3.71,WUHU216HW,2013-02-12 03:51:00,
2013-02-11 22:56:00,34.9,28.7,29.74,NW,315,17.9,34.2,78,0.00,,,3.71,WUHU216HW,2013-02-12 03:56:00,
2013-02-11 23:01:00,34.7,28.8,29.74,WNW,293,17.4,29.1,79,0.00,,,3.71,WUHU216HW,2013-02-12 04:01:00,
2013-02-11 23:06:00,34.6,29.0,29.74,West,270,19.5,29.1,80,0.00,,,3.71,WUHU216HW,2013-02-12 04:06:00,
2013-02-11 23:11:00,34.2,28.9,29.74,West,270,18.1,26.4,81,0.00,,,3.71,WUHU216HW,2013-02-12 04:11:00,
2013-02-11 23:16:00,33.8,28.8,29.74,NW,315,19.7,31.5,82,0.00,,,3.71,WUHU216HW,2013-02-12 04:16:00,
2013-02-11 23:21:00,33.7,29.0,29.74,NW,315,17.4,31.5,83,0.00,,,3.71,WUHU216HW,2013-02-12 04:21:00,
2013-02-11 23:26:00,33.7,29.3,29.74,NW,315,12.3,27.1,84,0.00,,,3.71,WUHU216HW,2013-02-12 04:26:00,
2013-02-11 23:31:00,33.5,29.1,29.74,WNW,293,24.2,31.3,84,0.00,,,3.71,WUHU216HW,2013-02-12 04:31:00,
2013-02-11 23:36:00,33.5,29.3,29.74,WNW,293,20.6,31.3,85,0.00,,,3.71,WUHU216HW,2013-02-12 04:36:00,
2013-02-11 23:41:00,33.3,29.3,29.74,WNW,293,12.1,24.8,85,0.00,,,3.71,WUHU216HW,2013-02-12 04:41:00,
2013-02-11 23:46:00,33.3,29.5,29.75,West,270,13.4,23.0,86,0.00,,,3.71,WUHU216HW,2013-02-12 04:46:00,
2013-02-11 23:51:00,33.1,29.1,29.75,WNW,293,18.3,23.0,85,0.00,,,3.71,WUHU216HW,2013-02-12 04:51:00,
2013-02-11 23:56:00,32.9,29.4,29.75,WSW,248,14.3,29.5,87,0.00,,,3.71,WUHU216HW,2013-02-12 04:56:00,